Time,TemperatureF,DewpointF,PressureIn,WindDirection,WindDirectionDegrees,WindSpeedMPH,WindSpeedGustMPH,Humidity,HourlyPrecipIn,Conditions,Clouds,dailyrainin,SolarRadiationWatts/m^2,SoftwareType,DateUTC
2013-04-30 03:32:00,60.0,60.0,-100.00,East,80,0.0,2.0,100,-99.99,,,0.00,0.000000,,2013-04-30 08:32:00,
2013-04-30 03:42:00,60.0,60.0,-100.00,East,80,0.0,2.0,100,-99.99,,,0.00,0.000000,,2013-04-30 08:42:00,
2013-04-30 03:52:00,60.0,60.0,-100.00,East,80,0.0,2.0,100,-99.99,,,0.00,0.000000,,2013-04-30 08:52:00,
2013-04-30 04:01:00,60.0,60.0,-100.00,East,80,0.0,2.0,100,-99.99,,,0.00,0.000000,,2013-04-30 09:01:00,
2013-04-30 11:33:00,73.0,68.0,-100.00,ESE,118,8.0,11.0,83,-99.99,,,0.00,360.000000,,2013-04-30 16:33:00,
2013-04-30 11:42:00,73.0,68.0,-100.00,ESE,118,8.0,11.0,83,-99.99,,,0.00,360.000000,,2013-04-30 16:42:00,
2013-04-30 11:52:00,73.0,68.0,-100.00,ESE,118,8.0,11.0,83,-99.99,,,0.00,360.000000,,2013-04-30 16:52:00,
2013-04-30 12:02:00,73.0,68.0,-100.00,ESE,118,8.0,11.0,83,-99.99,,,0.00,360.000000,,2013-04-30 17:02:00,
2013-04-30 13:32:00,76.0,67.0,-100.00,ESE,108,9.0,15.0,73,-99.99,,,-99.99,444.000000,,2013-04-30 18:32:00,
2013-04-30 13:42:00,76.0,67.0,-100.00,ESE,108,9.0,15.0,73,-99.99,,,-99.99,444.000000,,2013-04-30 18:42:00,
2013-04-30 13:52:00,76.0,67.0,-100.00,ESE,108,9.0,15.0,73,-99.99,,,-99.99,444.000000,,2013-04-30 18:52:00,
2013-04-30 14:01:00,76.0,67.0,-100.00,ESE,108,9.0,15.0,73,-99.99,,,-99.99,444.000000,,2013-04-30 19:01:00,
2013-04-30 14:32:00,76.0,66.0,-100.00,East,94,7.0,14.0,71,0.00,,,-99.99,432.000000,,2013-04-30 19:32:00,
2013-04-30 14:42:00,76.0,66.0,-100.00,East,94,7.0,14.0,71,0.00,,,-99.99,432.000000,,2013-04-30 19:42:00,
2013-04-30 14:52:00,76.0,66.0,-100.00,East,94,7.0,14.0,71,0.00,,,-99.99,432.000000,,2013-04-30 19:52:00,
2013-04-30 15:02:00,76.0,66.0,-100.00,East,94,7.0,14.0,71,0.00,,,-99.99,432.000000,,2013-04-30 20:02:00,
2013-04-30 15:32:00,76.0,66.0,-100.00,ESE,105,6.0,10.0,72,0.00,,,0.00,253.000000,,2013-04-30 20:32:00,
2013-04-30 15:42:00,76.0,66.0,-100.00,ESE,105,6.0,10.0,72,0.00,,,0.00,253.000000,,2013-04-30 20:42:00,
2013-04-30 15:52:00,76.0,66.0,-100.00,ESE,105,6.0,10.0,72,0.00,,,0.00,253.000000,,2013-04-30 20:52:00,
2013-04-30 16:02:00,76.0,66.0,-100.00,ESE,105,6.0,10.0,72,0.00,,,0.00,253.000000,,2013-04-30 21:02:00,
2013-04-30 16:32:00,65.0,65.0,-100.00,ENE,70,10.0,24.0,100,0.51,,,-99.99,42.000000,,2013-04-30 21:32:00,
2013-04-30 16:42:00,65.0,65.0,-100.00,ENE,70,10.0,24.0,100,0.51,,,-99.99,42.000000,,2013-04-30 21:42:00,
2013-04-30 16:53:00,65.0,65.0,-100.00,ENE,70,10.0,24.0,100,0.51,,,-99.99,42.000000,,2013-04-30 21:53:00,
2013-04-30 17:02:00,65.0,65.0,-100.00,ENE,70,10.0,24.0,100,0.51,,,-99.99,42.000000,,2013-04-30 22:02:00,
2013-04-30 17:33:00,66.0,66.0,-100.00,SSW,207,4.0,12.0,100,0.36,,,0.87,20.000000,,2013-04-30 22:33:00,
2013-04-30 17:42:00,66.0,66.0,-100.00,SSW,207,4.0,12.0,100,0.36,,,0.87,20.000000,,2013-04-30 22:42:00,
2013-04-30 17:53:00,66.0,66.0,-100.00,SSW,207,4.0,12.0,100,0.36,,,0.87,20.000000,,2013-04-30 22:53:00,
2013-04-30 18:02:00,66.0,66.0,-100.00,SSW,207,4.0,12.0,100,0.36,,,0.87,20.000000,,2013-04-30 23:02:00,
2013-04-30 18:32:00,67.0,67.0,-100.00,ENE,71,4.0,5.0,100,0.01,,,0.88,45.000000,,2013-04-30 23:32:00,
2013-04-30 18:42:00,67.0,67.0,-100.00,ENE,71,4.0,5.0,100,0.01,,,0.88,45.000000,,2013-04-30 23:42:00,
2013-04-30 18:52:00,67.0,67.0,-100.00,ENE,71,4.0,5.0,100,0.01,,,0.88,45.000000,,2013-04-30 23:52:00,
2013-04-30 19:02:00,67.0,67.0,-100.00,ENE,71,4.0,5.0,100,0.01,,,0.88,45.000000,,2013-05-01 00:02:00,
2013-04-30 19:32:00,66.0,66.0,-100.00,ENE,64,5.0,9.0,100,0.00,,,-99.99,22.000000,,2013-05-01 00:32:00,
2013-04-30 19:42:00,66.0,66.0,-100.00,ENE,64,5.0,9.0,100,0.00,,,-99.99,22.000000,,2013-05-01 00:42:00,
2013-04-30 19:52:00,66.0,66.0,-100.00,ENE,64,5.0,9.0,100,0.00,,,-99.99,22.000000,,2013-05-01 00:52:00,
2013-04-30 20:01:00,66.0,66.0,-100.00,ENE,64,5.0,9.0,100,0.00,,,-99.99,22.000000,,2013-05-01 01:01:00,
2013-04-30 20:32:00,66.0,66.0,-100.00,East,98,6.0,9.0,100,0.00,,,-99.99,5.000000,,2013-05-01 01:32:00,
2013-04-30 20:42:00,66.0,66.0,-100.00,East,98,6.0,9.0,100,0.00,,,-99.99,5.000000,,2013-05-01 01:42:00,
2013-04-30 20:52:00,66.0,66.0,-100.00,East,98,6.0,9.0,100,0.00,,,-99.99,5.000000,,2013-05-01 01:52:00,
2013-04-30 21:02:00,66.0,66.0,-100.00,East,98,6.0,9.0,100,0.00,,,-99.99,5.000000,,2013-05-01 02:02:00,
2013-04-30 21:32:00,65.0,65.0,-100.00,SE,124,2.0,8.0,100,0.00,,,-99.99,0.000000,,2013-05-01 02:32:00,
2013-04-30 21:42:00,65.0,65.0,-100.00,SE,124,2.0,8.0,100,0.00,,,-99.99,0.000000,,2013-05-01 02:42:00,
2013-04-30 21:52:00,65.0,65.0,-100.00,SE,124,2.0,8.0,100,0.00,,,-99.99,0.000000,,2013-05-01 02:52:00,
2013-04-30 22:02:00,65.0,65.0,-100.00,SE,124,2.0,8.0,100,0.00,,,-99.99,0.000000,,2013-05-01 03:02:00,
2013-04-30 22:33:00,66.0,66.0,-100.00,ESE,107,11.0,17.0,100,0.00,,,-99.99,0.000000,,2013-05-01 03:33:00,
2013-04-30 22:43:00,66.0,66.0,-100.00,ESE,107,11.0,17.0,100,0.00,,,-99.99,0.000000,,2013-05-01 03:43:00,
2013-04-30 22:53:00,66.0,66.0,-100.00,ESE,107,11.0,17.0,100,0.00,,,-99.99,0.000000,,2013-05-01 03:53:00,
2013-04-30 23:03:00,66.0,66.0,-100.00,ESE,107,11.0,17.0,100,0.00,,,-99.99,0.000000,,2013-05-01 04:03:00,
2013-04-30 23:32:00,65.0,65.0,-100.00,ENE,66,3.0,20.0,100,0.02,,,-99.99,0.000000,,2013-05-01 04:32:00,
2013-04-30 23:43:00,65.0,65.0,-100.00,ENE,66,3.0,20.0,100,0.02,,,-99.99,0.000000,,2013-05-01 04:43:00,
2013-04-30 23:52:00,65.0,65.0,-100.00,ENE,66,3.0,20.0,100,0.02,,,-99.99,0.000000,,2013-05-01 04:52:00,